TimeCST,TemperatureF,Dew PointF,Humidity,Sea Level PressureIn,VisibilityMPH,Wind Direction,Wind SpeedMPH,Gust SpeedMPH,PrecipitationIn,Events,Conditions,WindDirDegrees,DateUTC
12:53 AM,39.9,37.0,89,29.89,8.0,NNE,10.4,-,N/A,,Clear,30,2012-12-08 06:53:00
1:53 AM,41.0,37.9,89,29.89,7.0,NE,10.4,-,N/A,,Clear,40,2012-12-08 07:53:00
2:53 AM,39.0,37.0,93,29.89,6.0,North,10.4,-,N/A,,Clear,10,2012-12-08 08:53:00
3:53 AM,41.0,37.9,89,29.89,8.0,North,11.5,-,N/A,,Clear,10,2012-12-08 09:53:00
5:20 AM,39.2,37.4,93,29.90,6.0,NNE,9.2,-,N/A,,Scattered Clouds,20,2012-12-08 11:20:00
5:24 AM,39.2,37.4,93,29.90,6.0,NNE,11.5,-,N/A,,Mostly Cloudy,30,2012-12-08 11:24:00
5:53 AM,42.1,41.0,96,29.90,3.0,NE,10.4,-,N/A,,Overcast,40,2012-12-08 11:53:00
6:45 AM,44.6,42.8,93,29.91,6.0,ENE,9.2,-,N/A,,Overcast,60,2012-12-08 12:45:00
6:53 AM,45.0,42.1,90,29.91,7.0,ENE,9.2,-,N/A,,Overcast,70,2012-12-08 12:53:00
7:22 AM,42.8,39.2,87,29.91,6.0,ENE,3.5,-,N/A,,Scattered Clouds,70,2012-12-08 13:22:00
7:49 AM,39.2,37.4,93,29.92,2.5,NNW,3.5,-,N/A,,Scattered Clouds,340,2012-12-08 13:49:00
7:51 AM,39.2,37.4,93,29.92,3.0,North,3.5,-,N/A,,Mostly Cloudy,350,2012-12-08 13:51:00
7:53 AM,39.9,37.0,89,29.92,3.0,North,3.5,-,N/A,,Mostly Cloudy,350,2012-12-08 13:53:00
7:55 AM,39.2,37.4,93,29.92,1.8,North,3.5,-,N/A,,Mostly Cloudy,350,2012-12-08 13:55:00
8:07 AM,41.0,39.2,93,29.92,2.0,North,3.5,-,N/A,,Overcast,350,2012-12-08 14:07:00
8:15 AM,42.8,39.2,87,29.92,4.0,North,3.5,-,N/A,,Overcast,350,2012-12-08 14:15:00
8:49 AM,42.8,39.2,87,29.92,5.0,NE,4.6,-,N/A,,Overcast,40,2012-12-08 14:49:00
8:53 AM,42.1,39.0,89,29.92,5.0,NE,4.6,-,N/A,,Overcast,40,2012-12-08 14:53:00
9:21 AM,42.8,41.0,93,29.92,2.0,East,3.5,-,N/A,,Overcast,80,2012-12-08 15:21:00
9:33 AM,42.8,41.0,93,29.92,1.8,ENE,4.6,-,N/A,,Overcast,70,2012-12-08 15:33:00
9:41 AM,44.6,42.8,93,29.92,2.5,Calm,Calm,-,N/A,,Overcast,0,2012-12-08 15:41:00
9:53 AM,44.1,42.1,93,29.93,2.5,NNE,3.5,-,N/A,,Overcast,30,2012-12-08 15:53:00
10:02 AM,44.6,42.8,93,29.92,3.0,ENE,4.6,-,N/A,,Overcast,70,2012-12-08 16:02:00
10:50 AM,44.6,41.0,87,29.92,4.0,NE,3.5,-,N/A,,Overcast,40,2012-12-08 16:50:00
10:53 AM,46.0,41.0,83,29.93,4.0,NE,3.5,-,N/A,,Haze,40,2012-12-08 16:53:00
11:53 AM,46.0,42.1,86,29.90,6.0,Calm,Calm,-,N/A,,Overcast,0,2012-12-08 17:53:00
12:23 PM,46.4,42.8,87,29.88,7.0,Calm,Calm,-,N/A,,Overcast,0,2012-12-08 18:23:00
12:53 PM,46.9,43.0,86,29.86,7.0,Calm,Calm,-,N/A,,Overcast,0,2012-12-08 18:53:00
1:53 PM,48.0,43.0,83,29.83,7.0,Calm,Calm,-,N/A,,Overcast,0,2012-12-08 19:53:00
2:35 PM,48.2,42.8,82,29.81,8.0,Calm,Calm,-,N/A,,Overcast,0,2012-12-08 20:35:00
2:53 PM,48.9,43.0,80,29.81,8.0,Calm,Calm,-,N/A,,Overcast,0,2012-12-08 20:53:00
3:43 PM,48.2,42.8,82,29.79,7.0,Calm,Calm,-,N/A,,Overcast,0,2012-12-08 21:43:00
3:53 PM,48.9,43.0,80,29.79,8.0,Calm,Calm,-,N/A,,Overcast,0,2012-12-08 21:53:00
4:53 PM,50.0,43.0,77,29.78,9.0,SSE,3.5,-,N/A,,Overcast,160,2012-12-08 22:53:00
5:53 PM,50.0,43.0,77,29.78,10.0,Calm,Calm,-,N/A,,Overcast,0,2012-12-08 23:53:00
6:32 PM,48.2,41.0,76,29.78,10.0,Calm,Calm,-,N/A,,Scattered Clouds,0,2012-12-09 00:32:00
6:53 PM,46.0,39.9,79,29.77,10.0,East,3.5,-,N/A,,Clear,90,2012-12-09 00:53:00
7:53 PM,43.0,39.0,86,29.78,9.0,East,8.1,-,N/A,,Clear,90,2012-12-09 01:53:00
8:53 PM,41.0,37.9,89,29.76,7.0,ESE,8.1,-,N/A,,Clear,110,2012-12-09 02:53:00
9:53 PM,39.9,37.9,93,29.76,5.0,East,6.9,-,N/A,,Clear,100,2012-12-09 03:53:00
10:53 PM,39.0,37.0,93,29.75,4.0,East,6.9,-,N/A,,Clear,90,2012-12-09 04:53:00
11:53 PM,39.9,39.0,97,29.73,3.0,ESE,8.1,-,N/A,,Clear,110,2012-12-09 05:53:00